Regional Weather Roundup
Issued by NWS

Home | Current Version | Previous Version | Graphics & Text | Print | Product List | Glossary Off
Versions: 1 2 3 4 5 6 7 8 9 10 11 12 13 14 15 16 17 18 19 20 21 22 23 24 25 26 27 28 29 30 31 32 33 34 35 36 37 38 39 40 41 42 43 44 45 46 47 48 49 50

000
ASUS43 KTOP 301008
RWRKS

WEATHER ROUNDUP FOR KANSAS
NATIONAL WEATHER SERVICE GOODLAND KS
500 AM CDT SAT APR 30 2016

NOTE:  "FAIR" INDICATES FEW OR NO CLOUDS BELOW 12,000 FEET WITH NO
SIGNIFICANT WEATHER AND/OR OBSTRUCTIONS TO VISIBILITY.

KSZ001>006-013>018-027>032-041>047-301100-
NORTHWEST KANSAS

CITY           SKY/WX    TMP DP  RH WIND       PRES   REMARKS
GOODLAND       CLOUDY    32  31  96 N13       29.79S WCI  22
HAYS           CLOUDY    45  36  70 NW9       29.73S
HILL CITY      LGT RAIN  43  41  93 N10       29.74F FOG
RUSSELL        CLOUDY    45  45 100 NW9       29.69S FOG
$$

KSZ061>065-074>080-084>089-301100-
SOUTHWEST KANSAS

CITY           SKY/WX    TMP DP  RH WIND       PRES   REMARKS
DODGE CITY     CLOUDY    38  36  92 NW16      29.76S FOG     WCI  29
ELKHART          N/A     37  33  85 NW10        N/A  WCI  30
GARDEN CITY    CLOUDY    36  34  92 NW16      29.78S WCI  26
GREAT BEND     CLOUDY    45  37  76 NW13      29.72F
LIBERAL        MOCLDY    37  34  87 NW12      29.80R WCI  30
PRATT          CLOUDY    42  41  97 NW15      29.73S
$$

KSZ066>073-081>083-090>101-301100-
SOUTHEAST KANSAS

CITY           SKY/WX    TMP DP  RH WIND       PRES   REMARKS
CHANUTE        CLOUDY    61  59  93 SE8       29.63S
COFFEYVILLE    CLOUDY    62  61  96 S6        29.64S
HUTCHINSON     CLOUDY    50  48  93 NW13      29.69R
MEDICINE LODGE   N/A     46  44  93 NW13G20   29.72F
NEWTON         CLOUDY    50  45  81 NW10      29.69S
PARSONS        CLOUDY    63  61  93 CALM      29.64S
WICHITA INTL   CLOUDY    51  49  92 NW13      29.68R
WICHITA JABRA  CLOUDY    51  51 100 NW10      29.67S
WICHITA MCCONL CLOUDY    51  50  95 NW10      29.68R
WINFIELD       CLOUDY    52  51  97 W6        29.70R
$$

KSZ007>012-019>026-033>040-048>060-102>105-301100-
NORTHEAST KANSAS

CITY           SKY/WX    TMP DP  RH WIND       PRES   REMARKS
CONCORDIA      CLOUDY    46  45  96 N10       29.68S FOG
EMPORIA        LGT RAIN  56  55  97 W8        29.62S FOG
LAWRENCE       CLOUDY    55  55 100 E7        29.64F
MANHATTAN      CLOUDY    52  50  93 CALM      29.64S
MARYSVILLE     LGT RAIN  46  46 100 NE8       29.66F
OLATHE IND     CLOUDY    59  58  96 SE14G21   29.65S
OLATHE EXE     CLOUDY    58  57  97 SE7       29.65S
SALINA         CLOUDY    50  49  96 NW7       29.68R
TOPEKA BILLARD CLOUDY    55  54  96 E8        29.63F FOG
TOPEKA FORBES  CLOUDY    57  55  93 SE8       29.62F FOG
$$




USA.gov is the U.S. government's official web portal to all federal, state and local government web resources and services.